User: anonymous   Login
Location: Unspecified
(0.0000°N, 0.0000°E)
Time: 05:48:09
(UTC+00:00)
Language:

STARLINK-4292 - Orbit

View from above orbital plane
View from above orbital plane
View from above satellite
View from above satellite

Ground track
Ground track

The orbit is defined by the following mean orbital elements,

1 53175U          26145.52788502 +.00000000 +00000-0 +30416-3 0 00006
2 53175  53.2111 189.1797 0001339  85.4877 274.6268 15.08814327    07
Epoch (UTC): 25 May 2026 12:40:09
Eccentricity: 0.0001339
inclination: 53.2111°
perigee height: 539 km
apogee height: 541 km
right ascension of ascending node: 189.1797°
argument of perigee: 85.4877°
revolutions per day: 15.08814327
mean anomaly at epoch: 274.6268°

The dashed part of the orbit path shows where the satellite is in the earth's shadow,  

DLR